Location: ????????
(60.4333°N, 46.4710°E)
Time: 03:05:11
(UTC+00:00)

Cosmos 1500 Rocket - Pass Details

Date: 25 November 2020
Orbit: 604 x 631 km, 82.5° (Epoch: 19 January)

Event Time Altitude Azimuth Distance (km) Brightness Sun altitude
Rises 13:25:21 0° 345° (NNW) 2,893 6.9 -9.2°
Reaches altitude 10° 13:27:34 10° 347° (NNW) 1,987 6.0 -9.5°
Maximum altitude 13:31:59 81° 75° (ENE) 633 3.5 -10.0°
Drops below altitude 10° 13:36:24 10° 163° (SSE) 1,990 6.3 -10.5°
Sets 13:38:38 0° 165° (SSE) 2,896 7.1 -10.7°
